This is the latest recevied weather packets stored in our database for station/object KQ4WWD. If no packets are shown the sender has not sent any weather packets the latest 10 day(s).
| Time | Temp. | Humidity | Pressure | Rain* | Wind** | Luminosity | Snow |
|---|---|---|---|---|---|---|---|
| 1788220065 | 26.67° C | 87% | 1016 hPa | 0 mm | - | 2 W/m² | - |
| 1788219764 | 26.67° C | 87% | 1016.2 hPa | 0 mm | - | 4 W/m² | - |
| 1788219460 | 26.67° C | 87% | 1016.2 hPa | 0 mm | - | 6 W/m² | - |
| 1788219155 | 26.67° C | 87% | 1016 hPa | 0 mm | - | 9 W/m² | - |
| 1788218855 | 26.67° C | 86% | 1016.2 hPa | 0 mm | - | 15 W/m² | - |
| 1788218551 | 26.67° C | 86% | 1016.2 hPa | 0 mm | - | 23 W/m² | - |
| 1788218247 | 27.22° C | 86% | 1016.1 hPa | 0 mm | - | 32 W/m² | - |
| 1788217943 | 27.22° C | 86% | 1016.1 hPa | 0 mm | - | 39 W/m² | - |
| 1788217638 | 26.67° C | 86% | 1016 hPa | 0 mm | - | 46 W/m² | - |
| 1788217333 | 27.22° C | 86% | 1016.2 hPa | 0 mm | - | 56 W/m² | - |
| 1788217032 | 27.78° C | 86% | 1016.2 hPa | 0 mm | - | 69 W/m² | - |
| 1788216728 | 27.78° C | 87% | 1016.2 hPa | 0 mm | - | 123 W/m² | - |
| 1788216423 | 27.78° C | 87% | 1015.8 hPa | 0 mm | - | 146 W/m² | - |
| 1788216118 | 27.78° C | 88% | 1016 hPa | 0 mm | - | 167 W/m² | - |
| 1788215813 | 27.78° C | 88% | 1016 hPa | 0 mm | - | 181 W/m² | - |
| 1788215510 | 27.78° C | 88% | 1015.7 hPa | 0 mm | - | 208 W/m² | - |
| 1788215205 | 27.78° C | 88% | 1016 hPa | 0 mm | - | 243 W/m² | - |
| 1788214901 | 27.78° C | 88% | 1015.8 hPa | 0 mm | - | 271 W/m² | - |
| 1788214596 | 27.78° C | 88% | 1015.9 hPa | 0 mm | - | 283 W/m² | - |
| 1788214291 | 27.78° C | 89% | 1015.9 hPa | 0 mm | - | 300 W/m² | - |
| 1788213986 | 28.33° C | 88% | 1016.1 hPa | 0 mm | - | 304 W/m² | - |
| 1788213681 | 27.78° C | 88% | 1016.2 hPa | 0 mm | - | 339 W/m² | - |
| 1788213377 | 27.78° C | 89% | 1015.9 hPa | 0 mm | - | 358 W/m² | - |
| 1788213072 | 27.22° C | 89% | 1016 hPa | 0 mm | - | 563 W/m² | - |
| 1788212770 | 26.67° C | 91% | 1016 hPa | 0 mm | - | 399 W/m² | - |
* Rain latest hour (hover to see other rain measurements)
** Current wind speed in m/s (hover to see current wind gust speed)